Weather History for KPSM - December, 2014

Change the Weather History Date:

Saturday, December 6, 2014

  Actual Average Record
Temperature  
Mean Temperature 36 °F -  
Max Temperature 39 °F 40 °F 71 °F (2001)
Min Temperature 32 °F 25 °F 5 °F (1989)
Degree Days  
Heating Degree Days 30    
Moisture  
Dew Point 33 °F    
Average Humidity 93    
Maximum Humidity 100    
Minimum Humidity 87    
Precipitation  
Precipitation 0.78 in - - ()
Sea Level Pressure  
Sea Level Pressure 30.25 in    
Wind  
Wind Speed 5 mph (NW)    
Max Wind Speed 9 mph    
Max Gust Speed -    
Visibility 4 miles    
Events Rain    
Averages and records for this station are not official NWS values.
T = Trace of Precipitation, MM = Missing Value Source: NWS Daily Summary

Daily Weather History Graph

Daily Weather History Graph

Search for Another Location

Airport or City:

Trip Planner

Search our weather history database for the weather conditions in past years. The results will help you decide how hot, cold, wet, or windy it might be!

Date:

Astronomy

Dec. 06, 2014 Rise Set
Actual Time 7:00 AM EST 4:08 PM EST
Civil Twilight 6:28 AM EST 4:40 PM EST
Nautical Twilight 5:52 AM EST 5:16 PM EST
Astronomical Twilight 5:18 AM EST 5:50 PM EST
Moon 4:43 PM EST (12/6) 6:46 AM EST (12/6)
Length of Visible Light 10h 12m
Length of Day
9h 08m
Full, 100% of the Moon is Illuminated
Dec 6
Full
Dec 14
Last Quarter
Dec 21
New
Dec 28
First Quarter
Jan 4
Full

Hourly Weather History & Observations

Time (EST) Temp. Windchill Dew Point Humidity Pressure Visibility Wind Dir Wind Speed Gust Speed Precip Events Conditions
12:39 AM 32.0 °F 28.7 °F 30.2 °F 93% 30.45 in 4.0 mi North 3.5 mph - N/A Rain Light Freezing Rain
12:58 AM 32.9 °F - 31.5 °F 94% 30.46 in 4.0 mi East 2.3 mph - 0.06 in Rain Light Freezing Rain
1:14 AM 35.6 °F 31.7 °F 32.0 °F 87% 30.43 in 4.0 mi Variable 4.6 mph - N/A Rain Light Rain
1:58 AM 36.7 °F 30.5 °F 34.3 °F 91% 30.44 in 5.0 mi East 8.1 mph - 0.05 in Rain Light Rain
2:34 AM 37.4 °F 32.1 °F 35.6 °F 93% 30.40 in 3.0 mi East 6.9 mph - N/A Rain Light Rain
2:58 AM 38.5 °F 33.4 °F 36.3 °F 92% 30.40 in 4.0 mi East 6.9 mph - 0.07 in Rain Light Rain
3:24 AM 39.2 °F 34.2 °F 37.4 °F 93% 30.37 in 1.2 mi Variable 6.9 mph - N/A Rain Light Rain
3:58 AM 39.6 °F 34.7 °F 37.6 °F 93% 30.36 in 1.0 mi North 6.9 mph - 0.06 in Rain Light Rain
4:58 AM 32.5 °F 27.1 °F 31.1 °F 94% 30.34 in 1.0 mi NNW 5.8 mph - 0.04 in Rain Light Rain
5:58 AM 32.5 °F 27.1 °F 31.1 °F 94% 30.31 in 1.0 mi Variable 5.8 mph - 0.04 in Rain Light Rain
6:58 AM 32.7 °F 25.0 °F 31.5 °F 95% 30.29 in 1.2 mi North 9.2 mph - 0.04 in Rain Light Rain
7:58 AM 32.2 °F 25.0 °F 30.9 °F 95% 30.26 in 1.5 mi North 8.1 mph - 0.02 in Rain Light Rain
8:58 AM 32.2 °F 25.0 °F 30.9 °F 95% 30.23 in 2.0 mi North 8.1 mph - 0.00 in   Light Drizzle
9:13 AM 32.0 °F 25.6 °F 32.0 °F 100% 30.21 in 2.0 mi NNW 6.9 mph - N/A   Overcast
9:58 AM 33.1 °F 27.7 °F 31.5 °F 94% 30.23 in 2.0 mi NNW 5.8 mph - 0.00 in Rain Light Rain
10:28 AM 32.0 °F 26.4 °F 32.0 °F 100% 30.19 in 3.0 mi WNW 5.8 mph - N/A Rain Rain
10:58 AM 33.6 °F 29.4 °F 32.2 °F 94% 30.21 in 1.5 mi West 4.6 mph - 0.07 in Rain Rain
11:28 AM 33.8 °F 28.6 °F 32.0 °F 93% 30.18 in 3.0 mi West 5.8 mph - N/A Rain Light Rain
11:58 AM 34.0 °F 28.8 °F 32.7 °F 95% 30.19 in 4.0 mi West 5.8 mph - 0.04 in Rain Light Rain
12:30 PM 33.8 °F 28.6 °F 32.0 °F 93% 30.16 in 5.0 mi WSW 5.8 mph - N/A Rain Light Rain
12:58 PM 35.2 °F 30.3 °F 33.8 °F 94% 30.18 in 5.0 mi WSW 5.8 mph - 0.02 in Rain Light Rain
1:58 PM 34.5 °F 29.4 °F 33.1 °F 94% 30.16 in 6.0 mi WSW 5.8 mph - 0.00 in   Overcast
2:36 PM 35.6 °F 30.7 °F 32.0 °F 87% 30.16 in 6.0 mi SW 5.8 mph - N/A   Overcast
2:58 PM 34.9 °F 30.8 °F 33.4 °F 94% 30.17 in 6.0 mi WSW 4.6 mph - 0.00 in Rain Light Rain
3:58 PM 34.9 °F 32.0 °F 33.3 °F 94% 30.19 in 6.0 mi SW 3.5 mph - 0.00 in Rain Light Rain
4:58 PM 35.1 °F - 33.4 °F 94% 30.19 in 6.0 mi West 2.3 mph - 0.00 in Rain Light Rain
5:58 PM 34.9 °F - 33.3 °F 94% 30.19 in 5.0 mi Calm Calm - 0.02 in Rain Light Rain
6:58 PM 34.7 °F 30.6 °F 33.3 °F 94% 30.16 in 6.0 mi NNW 4.6 mph - 0.01 in Rain Light Rain
7:58 PM 34.9 °F 32.0 °F 33.6 °F 95% 30.18 in 5.0 mi NNW 3.5 mph - 0.01 in Rain Light Rain
8:28 PM 35.6 °F 31.7 °F 32.0 °F 87% 30.16 in 4.0 mi NW 4.6 mph - N/A Rain Light Rain
8:58 PM 35.1 °F 32.2 °F 33.6 °F 94% 30.19 in 3.0 mi West 3.5 mph - 0.06 in Rain Rain
9:41 PM 35.6 °F 31.7 °F 32.0 °F 87% 30.20 in 3.0 mi NW 4.6 mph - N/A Rain Rain
9:58 PM 34.9 °F 29.9 °F 33.6 °F 95% 30.22 in 3.0 mi NNW 5.8 mph - 0.08 in Rain Rain
10:26 PM 35.6 °F 31.7 °F 33.8 °F 93% 30.22 in 6.0 mi NNW 4.6 mph - N/A Rain Light Rain
10:58 PM 34.9 °F 29.9 °F 33.6 °F 95% 30.25 in 6.0 mi NNW 5.8 mph - 0.05 in Rain Light Rain
11:15 PM 35.6 °F 31.7 °F 33.8 °F 93% 30.23 in 6.0 mi NNW 4.6 mph - N/A Rain Light Rain
11:58 PM 35.1 °F 30.1 °F 33.4 °F 94% 30.27 in 6.0 mi NNW 5.8 mph - 0.04 in Rain Light Rain